This demonstration page uses our WeatherBlox Daily Observations layout. Learn more.

Left ArrowRight Arrow

Hourly Observations for February 1, 2016

Temp ( °F °C ) Dew Point ( °F °C ) Humidity (%) Winds ( mph kmh ) Pressure ( in mb ) Visibility ( mi km ) Precip ( " mm )
12:15 am 00:15 Clear 27 -3 19 -7 74 74 Calm 30.06 1018 10 16 0.00 0.00
12:35 am 00:35 Clear 28 -2 21 -6 74 74 Calm 30.03 1017 10 16 0.00 0.00
12:55 am 00:55 Clear 28 -2 19 -7 69 69 Calm 30.03 1017 10 16 0.00 0.00
1:15 am 01:15 Clear 28 -2 21 -6 74 74 Calm 30.03 1017 10 16 0.00 0.00
1:35 am 01:35 Clear 28 -2 21 -6 74 74 Calm 30.03 1017 10 16 0.00 0.00
1:55 am 01:55 Clear 27 -3 19 -7 74 74 Calm 30.06 1018 10 16 0.00 0.00
2:15 am 02:15 Clear 27 -3 19 -7 74 74 NW 3 6 30.06 1018 10 16 0.00 0.00
2:35 am 02:35 Mostly Cloudy 27 -3 19 -7 74 74 WNW 5 7 30.06 1018 10 16 0.00 0.00
2:55 am 02:55 Cloudy 27 -3 19 -7 74 74 NW 6 9 30.06 1018 10 16 0.00 0.00
3:15 am 03:15 Cloudy 27 -3 19 -7 74 74 NW 6 9 30.06 1018 10 16 0.00 0.00
3:35 am 03:35 Cloudy 27 -3 21 -6 80 80 NW 5 7 30.06 1018 10 16 0.00 0.00
3:55 am 03:55 Cloudy 27 -3 21 -6 80 80 NW 5 7 30.06 1018 10 16 0.00 0.00
4:15 am 04:15 Mostly Cloudy 28 -2 21 -6 74 74 NW 5 7 30.03 1017 10 16 0.00 0.00
4:35 am 04:35 Cloudy 28 -2 21 -6 74 74 NNW 3 6 30.03 1017 10 16 0.00 0.00
4:55 am 04:55 Cloudy 27 -3 21 -6 80 80 NW 3 6 30.06 1018 10 16 0.00 0.00
5:15 am 05:15 Cloudy 27 -3 21 -6 80 80 Calm 30.06 1018 10 16 0.00 0.00
5:35 am 05:35 Cloudy 27 -3 21 -6 80 80 NNE 3 6 30.06 1018 10 16 0.00 0.00
5:55 am 05:55 Cloudy 27 -3 21 -6 80 80 Calm 30.06 1018 10 16 0.00 0.00
6:15 am 06:15 Cloudy 27 -3 21 -6 80 80 ENE 3 6 30.06 1018 10 16 0.00 0.00
6:35 am 06:35 Cloudy 28 -2 21 -6 74 74 Calm 30.03 1017 10 16 0.00 0.00
6:55 am 06:55 Cloudy 28 -2 21 -6 74 74 Calm 30.03 1017 10 16 0.00 0.00
7:15 am 07:15 Cloudy 28 -2 21 -6 74 74 ESE 9 15 30.03 1017 10 16 0.00 0.00
7:35 am 07:35 Cloudy 32 0 21 -6 64 64 E 5 7 30.03 1017 10 16 0.00 0.00
7:55 am 07:55 Cloudy 30 -1 21 -6 69 69 NE 5 7 30.06 1018 10 16 0.00 0.00
8:15 am 08:15 Cloudy 30 -1 21 -6 69 69 NE 5 7 30.06 1018 10 16 0.00 0.00
8:35 am 08:35 Cloudy 30 -1 21 -6 69 69 NE 5 7 30.06 1018 10 16 0.00 0.00
8:55 am 08:55 Cloudy 32 0 25 -4 75 75 Calm 30.06 1018 10 16 0.00 0.00
9:15 am 09:15 Cloudy 34 1 23 -5 65 65 ENE 3 6 30.03 1017 10 16 0.00 0.00
9:35 am 09:35 Cloudy 34 1 25 -4 70 70 Calm 30.03 1017 10 16 0.00 0.00
9:55 am 09:55 Cloudy 36 2 25 -4 65 65 ESE 5 7 30.03 1017 10 16 0.00 0.00
10:35 am 10:35 Cloudy 37 3 25 -4 60 60 ESE 6 9 30.03 1017 10 16 0.00 0.00
10:55 am 10:55 Cloudy 37 3 23 -5 56 56 SE 8 13 30.03 1017 10 16 0.00 0.00
11:15 am 11:15 Cloudy 37 3 25 -4 60 60 SSE 10 17 30.03 1017 10 16 0.00 0.00
11:35 am 11:35 Cloudy 37 3 27 -3 65 65 SSE 13 20 30.03 1017 10 16 0.00 0.00
11:55 am 11:55 Cloudy 37 3 27 -3 65 65 SSE 10 17 30.03 1017 10 16 0.00 0.00
12:15 pm 12:15 Cloudy 36 2 27 -3 70 70 SSE 20 31 30.03 1017 10 16 0.00 0.00
12:35 pm 12:35 Cloudy 34 1 28 -2 81 81 SE 17 28 30.00 1016 10 16 0.00 0.00
12:55 pm 12:55 Mostly Cloudy 34 1 28 -2 81 81 SE 13 20 30.00 1016 10 16 0.00 0.00
1:15 pm 13:15 Cloudy 34 1 28 -2 81 81 SE 13 20 30.00 1016 3 5 0.00 0.00
1:35 pm 13:35 Cloudy 34 1 30 -1 87 87 SE 12 19 30.00 1016 2 3 0.00 0.00
1:55 pm 13:55 Cloudy 34 1 30 -1 87 87 SE 12 19 29.97 1015 7 11 0.00 0.00
2:15 pm 14:15 Cloudy 32 0 30 -1 93 93 ESE 13 20 30.00 1016 1 2 0.00 0.00
2:35 pm 14:35 Cloudy 32 0 28 -2 87 87 ESE 10 17 30.00 1016 2 3 0.00 0.00
2:55 pm 14:55 Cloudy 32 0 30 -1 93 93 ESE 12 19 29.97 1015 1 2 0.00 0.00
3:15 pm 15:15 Cloudy 32 0 30 -1 93 93 ESE 10 17 29.97 1015 3 5 0.00 0.00
3:35 pm 15:35 Cloudy 32 0 30 -1 93 93 ESE 10 17 29.97 1015 2 3 0.01 0.25
3:55 pm 15:55 Cloudy 34 1 30 -1 87 87 E 13 20 29.94 1014 3 4 0.01 0.25
4:15 pm 16:15 Cloudy 34 1 30 -1 87 87 E 15 24 29.94 1014 3 5 0.00 0.00
4:35 pm 16:35 Cloudy 34 1 28 -2 81 81 E 16 26 29.94 1014 8 13 0.00 0.00
4:55 pm 16:55 Cloudy 34 1 28 -2 81 81 E 15 24 29.94 1014 4 6 0.00 0.00
5:15 pm 17:15 Cloudy 32 0 28 -2 87 87 E 14 22 29.97 1015 2 3 0.00 0.00
5:35 pm 17:35 Sunny 43 6 19 -7 39 39 NW 5 7 29.91 1013 10 16 0.00 0.00
5:55 pm 17:55 Clear 43 6 19 -7 39 39 NW 5 7 29.91 1013 10 16 0.00 0.00
6:15 pm 18:15 Cloudy 32 0 28 -2 87 87 E 18 30 29.97 1015 2 3 0.00 0.00
6:35 pm 18:35 Cloudy 32 0 28 -2 87 87 ENE 20 31 29.97 1015 3 4 0.00 0.00
6:55 pm 18:55 Cloudy 32 0 28 -2 87 87 ENE 18 30 29.97 1015 2 3 0.00 0.00
7:15 pm 19:15 Cloudy 32 0 28 -2 87 87 ENE 17 28 29.97 1015 3 4 0.00 0.00
7:35 pm 19:35 Cloudy 32 0 28 -2 87 87 ENE 17 28 29.97 1015 3 4 0.00 0.00
7:55 pm 19:55 Cloudy 32 0 28 -2 87 87 ENE 18 30 29.97 1015 1 2 0.00 0.00
8:15 pm 20:15 Cloudy 32 0 28 -2 87 87 ENE 16 26 29.97 1015 3 4 0.00 0.00
8:35 pm 20:35 Cloudy 32 0 28 -2 87 87 ENE 17 28 29.97 1015 2 3 0.00 0.00
8:55 pm 20:55 Cloudy 32 0 28 -2 87 87 ENE 17 28 29.97 1015 1 2 0.01 0.25
9:15 pm 21:15 Cloudy 32 0 28 -2 87 87 ENE 18 30 29.97 1015 1 2 0.00 0.00
9:35 pm 21:35 Cloudy 32 0 28 -2 87 87 NE 22 35 29.91 1013 1 2 0.01 0.25
9:55 pm 21:55 Cloudy 32 0 28 -2 87 87 ENE 21 33 29.91 1013 1 2 0.01 0.25
10:15 pm 22:15 Cloudy 32 0 28 -2 87 87 ENE 22 35 29.91 1013 3 4 0.00 0.00
10:35 pm 22:35 Cloudy 32 0 28 -2 87 87 ENE 25 41 29.91 1013 5 8 0.00 0.00
10:55 pm 22:55 Cloudy 32 0 28 -2 87 87 ENE 26 43 29.88 1012 3 5 0.00 0.00
11:15 pm 23:15 Cloudy 34 1 28 -2 81 81 NE 26 43 29.88 1012 2 3 0.00 0.00
11:35 pm 23:35 Cloudy 34 1 28 -2 81 81 NE 26 43 29.88 1012 1 2 0.00 0.00
11:55 pm 23:55 Cloudy 32 0 28 -2 87 87 NE 24 39 29.85 1011 2 2 0.00 0.00

Powered by AerisWeather